Overview Statistics Trail Chart Weather Telemetry Raw packets
 

This is the latest recevied weather packets stored in our database for station/object VE3DVC. If no packets are shown the sender has not sent any weather packets the latest 10 day(s).

<< 7 8 9 10 11 12 13 >>
Time Temp. Humidity Pressure Rain* Wind** Luminosity Snow
1788547987 23.33° C 89% 1014.6 hPa 0 mm - - -
1788547267 23.33° C 89% 1014.5 hPa 0 mm - - -
1788546547 23.33° C 90% 1014.6 hPa 0 mm - - -
1788545826 22.78° C 91% 1014.8 hPa 0 mm - - -
1788545107 21.67° C 92% 1015 hPa 0 mm - - -
1788544387 21.11° C 93% 1015.3 hPa 0 mm - - -
1788543666 21.11° C 92% 1015.5 hPa 0 mm - - -
1788542947 20.56° C 92% 1015.7 hPa 0 mm - - -
1788542227 20.56° C 92% 1015.9 hPa 0 mm - - -
1788541506 20.56° C 92% 1015.9 hPa 0 mm - - -
1788540787 20° C 92% 1016.1 hPa 0 mm - - -
1788540067 20° C 92% 1016.1 hPa 0 mm - - -
1788539346 20.56° C 92% 1016.3 hPa 0 mm - - -
1788538627 20.56° C 92% 1016.7 hPa 0 mm - - -
1788537907 20° C 92% 1016.8 hPa 0 mm - - -
1788537187 20° C 92% 1016.9 hPa 0 mm - - -
1788536466 20.56° C 91% 1016.6 hPa 0 mm - - -
1788535747 20° C 91% 1016.5 hPa 0 mm - - -
1788535027 20° C 91% 1016.4 hPa 0 mm - - -
1788534307 20° C 91% 1016.3 hPa 0 mm - - -
1788533587 20° C 91% 1016.3 hPa 0 mm - - -
1788532867 20° C 91% 1016.2 hPa 0 mm - - -
1788532175 20° C 91% 1016.1 hPa 0 mm - - -
1788531427 20° C 91% 1016.2 hPa 0 mm - - -
1788530707 20° C 91% 1016.1 hPa 0 mm - - -

* Rain latest hour (hover to see other rain measurements)
** Current wind speed in m/s (hover to see current wind gust speed)